Location: ???? ????
(41.4149°N, 22.8816°E)
Time: 13:51:09
(UTC+00:00)

COSMOS 2406 - Pass Details

Date: 14 July 2020
Orbit: 844 x 863 km, 71.0° (Epoch: 04 August)

Event Time Altitude Azimuth Distance (km) Brightness Sun altitude
Exits shadow 00:49:37 29° 250° (WSW) 1,541 4.1 -19.6°
Maximum altitude 00:52:01 43° 300° (WNW) 1,200 3.9 -19.3°
Drops below altitude 10° 00:57:29 10° 12° (NNE) 2,508 6.7 -18.8°
Sets 01:00:06 0° 19° (NNE) 3,447 7.8 -18.5°
